This demonstration page uses our WeatherBlox Daily Observations layout. Learn more.

Left ArrowRight Arrow

39.01783, -85.05884

Hourly Observations for June 30, 2021

Temp ( °F °C ) Dew Point ( °F °C ) Humidity (%) Winds ( mph kmh ) Pressure ( in mb ) Visibility ( mi km ) Precip ( " mm )
12:40 am 00:40 Cloudy 77 25 69 20.6 77 77 NE 5 7 30.13 1020 10 16 0.00 0.00
12:52 am 00:52 Cloudy 78 25.6 69 20.6 74 74 Calm 30.13 1020 10 16 0.00 0.00
1:52 am 01:52 Cloudy 74 23.3 69 20.6 85 85 Calm 30.11 1020 10 16 0.00 0.00
2:52 am 02:52 Cloudy 74 23.3 69 20.6 85 85 Calm 30.10 1019 10 16 0.00 0.00
3:52 am 03:52 Cloudy 72 22.2 69 20.6 91 91 S 5 7 30.10 1019 10 16 0.00 0.00
4:52 am 04:52 Cloudy 74 23.3 69 20.6 85 85 Calm 30.08 1019 10 16 0.00 0.00
5:52 am 05:52 Mostly Cloudy 73 22.8 68 20 84 84 SW 6 9 30.09 1019 10 16 0.00 0.00
6:52 am 06:52 Mostly Cloudy 72 22.2 68 20 87 87 SW 6 9 30.11 1020 8 13 0.00 0.00
7:52 am 07:52 Mostly Cloudy 75 23.9 69 20.6 82 82 WSW 5 7 30.11 1020 10 16 0.00 0.00
8:52 am 08:52 Mostly Cloudy 77 25 69 20.6 77 77 WNW 12 19 30.13 1020 10 16 0.00 0.00
9:29 am 09:29 Cloudy 76 24.4 69 20.6 79 79 WNW 13 20 30.15 1021 10 16 0.00 0.00
9:52 am 09:52 Cloudy 76 24.4 69 20.6 79 79 NW 7 11 30.15 1021 10 16 0.00 0.00
10:27 am 10:27 Cloudy with Nearby Thunderstorms 75 23.9 69 20.6 82 82 SW 7 11 30.15 1021 2 3 0.00 0.00
10:28 am 10:28 Cloudy with Nearby Thunderstorms 75 23.9 69 20.6 82 82 WSW 7 11 30.15 1021 3 5 0.01 0.25
10:34 am 10:34 Cloudy with Nearby Thunderstorms 74 23.3 70 21.1 88 88 WSW 7 11 30.15 1021 6 10 0.08 2.03
10:48 am 10:48 Cloudy with Rain 73 23 70 21 89 89 SW 8 13 30.15 1021 3 4 0.09 2.29
10:52 am 10:52 Cloudy with Heavy Rain 74 23.3 70 21.1 88 88 WSW 7 11 30.14 1021 3 4 0.11 2.79
10:58 am 10:58 Cloudy with Light Rain 74 23.3 70 21.1 88 88 WSW 6 9 30.14 1021 7 11 0.01 0.25
11:52 am 11:52 Cloudy 78 25.6 68 20 71 71 Calm 30.14 1021 10 16 0.01 0.25
12:52 pm 12:52 Cloudy 81 27.2 70 21.1 69 69 VRB 5 7 30.12 1020 10 16 0.00 0.00
1:52 pm 13:52 Mostly Cloudy 82 27.8 71 21.7 69 69 SW 9 15 30.09 1019 10 16 0.00 0.00
2:52 pm 14:52 Cloudy 82 27.8 70 21.1 67 67 SW 7 11 30.06 1018 10 16 0.00 0.00
3:52 pm 15:52 Cloudy 82 27.8 70 21.1 67 67 SSW 8 13 30.06 1018 9 14 0.00 0.00
4:52 pm 16:52 Cloudy with Light Rain 82 27.8 70 21.1 67 67 WSW 8 13 30.05 1018 7 11 0.00 0.00
5:23 pm 17:23 Mostly Cloudy with Nearby Thunderstorms 80 26.7 72 22.2 76 76 S 3 6 30.03 1017 10 16 0.06 1.52
5:38 pm 17:38 Mostly Cloudy 82 27.8 72 22.2 72 72 SSW 3 6 30.02 1017 9 14 0.06 1.52
5:52 pm 17:52 Mostly Cloudy 82 27.8 74 23.3 77 77 SSW 3 6 30.03 1017 8 13 0.06 1.52
6:16 pm 18:16 Mostly Cloudy with Nearby Thunderstorms 83 28.3 71 21.7 67 67 WSW 6 9 30.00 1016 10 16 0.00 0.00
6:52 pm 18:52 Cloudy with Nearby Thunderstorms 83 28.3 71 21.7 67 67 W 7 11 30.01 1016 10 16 0.00 0.00
7:07 pm 19:07 Cloudy with Nearby Thunderstorms 79 26.1 69 20.6 72 72 NNE 15 24 30.01 1016 10 16 0.00 0.00
7:29 pm 19:29 Cloudy 78 25.6 68 20 71 71 ENE 9 15 30.01 1016 10 16 0.00 0.00
7:52 pm 19:52 Cloudy 77 25 68 20 74 74 ENE 3 6 30.02 1017 10 16 0.00 0.00
8:52 pm 20:52 Cloudy 76 24.4 67 19.4 74 74 E 3 6 30.02 1017 10 16 0.00 0.00
9:28 pm 21:28 Cloudy with Thunderstorms 76 24.4 68 20 77 77 WNW 8 13 30.00 1016 10 16 0.00 0.00
9:38 pm 21:38 Cloudy with Thunderstorms 75 23.9 68 20 79 79 NW 3 6 30.03 1017 10 16 0.00 0.00
9:52 pm 21:52 Cloudy with Thunderstorms 75 23.9 68 20 79 79 ENE 8 13 30.03 1017 10 16 0.00 0.00
10:06 pm 22:06 Windy with Storms Likely 74 23.3 69 20.6 85 85 NW 22 35 30.06 1018 4 6 0.00 0.00
10:08 pm 22:08 Cloudy with Thunderstorms 73 22.8 69 20.6 87 87 NNW 17 28 30.06 1018 2 3 0.00 0.00
10:13 pm 22:13 Cloudy with Strong Thunderstorms 72 22.2 68 20 87 87 N 13 20 30.06 1018 1 1 0.11 2.79
10:17 pm 22:17 Cloudy with Strong Thunderstorms 70 21.1 68 20 93 93 N 16 26 30.06 1018 1 1 0.35 8.89
10:22 pm 22:22 Cloudy with Thunderstorms 70 21.1 67 19.4 90 90 NNW 13 20 30.06 1018 1 2 0.51 12.95
10:40 pm 22:40 Cloudy with Strong Thunderstorms 69 20.6 67 19.4 93 93 NNW 13 20 30.06 1018 3 5 0.90 22.86
10:45 pm 22:45 Cloudy with Thunderstorms 69 20.6 67 19.4 93 93 NNW 10 17 30.06 1018 2 3 0.93 23.62
10:52 pm 22:52 Cloudy with Strong Thunderstorms 68 20 67 19.4 96 96 NNW 12 19 30.04 1017 1 2 1.14 28.96
11:04 pm 23:04 Cloudy with Strong Thunderstorms 68 20 68 20 100 100 N 3 6 30.04 1017 1 2 0.18 4.57
11:11 pm 23:11 Cloudy with Thunderstorms 69 20.6 67 19.4 93 93 NNE 5 7 30.03 1017 3 5 0.25 6.35
11:25 pm 23:25 Cloudy with Nearby Thunderstorms 70 21.1 65 18.3 84 84 Calm 30.02 1017 10 16 0.27 6.86
11:28 pm 23:28 Cloudy with Light Rain 70 21.1 66 18.9 87 87 Calm 30.02 1017 10 16 0.27 6.86
11:52 pm 23:52 Cloudy with Light Rain 70 21.1 66 18.9 87 87 ESE 5 7 30.02 1017 10 16 0.27 6.86

Powered by AerisWeather